Weather History for Omak, WA

Change the Weather History Date:

Wednesday, February 19, 2014

  Actual Average Record
Temperature  
Mean Temperature 38 °F 33 °F  
Max Temperature 48 °F 42 °F 55 °F (1931)
Min Temperature 27 °F 24 °F -9 °F (1936)
Degree Days  
Heating Degree Days 27 32  
Month to date heating degree days 724 649  
Since 1 July heating degree days 4679 4582  
Cooling Degree Days 0 0  
Month to date cooling degree days 0 0  
Year to date cooling degree days 0 0  
Moisture  
Dew Point 21 °F    
Average Humidity 51    
Maximum Humidity 78    
Minimum Humidity 24    
Precipitation  
Precipitation 0.00 in 0.05 in 0.45 in (1998)
Month to date precipitation 1.18 0.88  
Year to date precipitation 1.50 2.57  
Sea Level Pressure  
Sea Level Pressure 29.93 in    
Wind  
Wind Speed 8 mph (SSW)    
Max Wind Speed 22 mph    
Max Gust Speed 34 mph    
Visibility 10 miles    
Events      
T = Trace of Precipitation, MM = Missing Value Source: NWS Daily Summary

Daily Weather History Graph

Daily Weather History Graph

Search for Another Location

Airport:

Trip Planner

Search our weather history database for the weather conditions in past years. The results will help you decide how hot, cold, wet, or windy it might be!

Date:

Astronomy

Feb. 19, 2014 Rise Set
Actual Time 6:58 AM PST 5:26 PM PST
Civil Twilight 6:26 AM PST 5:58 PM PST
Nautical Twilight 5:49 AM PST 6:34 PM PST
Astronomical Twilight 5:13 AM PST 7:11 PM PST
Moon 10:52 PM PST (2/19) 8:42 AM PST (2/19)
Length of Visible Light 11h 32m
Length of Day
10h 28m
Waning Gibbous, 79% of the Moon is Illuminated
Feb 19
Waning Gibbous
Feb 22
Last Quarter
Mar 1
New
Mar 8
First Quarter
Mar 16
Full

Hourly Weather History & Observations

Time (PST) Temp. Windchill Dew Point Humidity Pressure Visibility Wind Dir Wind Speed Gust Speed Precip Events Conditions
12:53 AM 33.1 °F 30.0 °F 26.1 °F 75% 29.73 in 10.0 mi SSW 3.5 mph - N/A   Scattered Clouds
1:53 AM 34.0 °F 27.2 °F 26.1 °F 73% 29.75 in 10.0 mi SSE 8.1 mph - N/A   Clear
2:53 AM 32.0 °F 24.8 °F 25.0 °F 75% 29.78 in 10.0 mi South 8.1 mph - N/A   Clear
3:53 AM 30.9 °F 22.8 °F 25.0 °F 79% 29.80 in 10.0 mi SSE 9.2 mph - N/A   Mostly Cloudy
4:53 AM 30.0 °F 22.4 °F 24.1 °F 79% 29.83 in 10.0 mi ESE 8.1 mph - N/A   Partly Cloudy
5:53 AM 28.0 °F 21.7 °F 23.0 °F 81% 29.85 in 10.0 mi SW 5.8 mph - N/A   Clear
6:53 AM 28.0 °F 22.8 °F 23.0 °F 81% 29.86 in 10.0 mi West 4.6 mph - N/A   Clear
7:53 AM 28.0 °F - 23.0 °F 81% 29.89 in 10.0 mi Calm Calm - N/A   Clear
8:53 AM 33.1 °F - 26.1 °F 75% 29.90 in 10.0 mi Calm Calm - N/A   Clear
9:53 AM 37.0 °F 30.4 °F 27.0 °F 67% 29.91 in 10.0 mi SSE 9.2 mph - N/A   Clear
10:53 AM 41.0 °F 37.1 °F 27.0 °F 57% 29.92 in 10.0 mi South 5.8 mph - N/A   Clear
11:53 AM 44.1 °F 38.6 °F 26.1 °F 49% 29.92 in 10.0 mi South 10.4 mph - N/A   Clear
12:53 PM 46.0 °F 40.6 °F 23.0 °F 40% 29.93 in 10.0 mi South 11.5 mph - N/A   Partly Cloudy
1:53 PM 46.0 °F - 18.0 °F 33% 29.94 in 10.0 mi Calm Calm - N/A   Partly Cloudy
2:53 PM 46.9 °F - 12.0 °F 24% 29.94 in 10.0 mi NW 18.4 mph 24.2 mph N/A   Clear
3:53 PM 45.0 °F 36.9 °F 10.0 °F 24% 29.96 in 10.0 mi West 20.7 mph 26.5 mph N/A   Clear
4:53 PM 43.0 °F 35.4 °F 9.0 °F 25% 29.98 in 10.0 mi West 16.1 mph 21.9 mph N/A   Clear
5:53 PM 39.9 °F 32.9 °F 12.0 °F 32% 30.01 in 10.0 mi NW 11.5 mph - N/A   Clear
6:53 PM 35.1 °F 29.3 °F 14.0 °F 42% 30.04 in 10.0 mi WSW 6.9 mph - N/A   Clear
7:53 PM 34.0 °F 31.0 °F 19.0 °F 54% 30.05 in 10.0 mi Variable 3.5 mph - N/A   Clear
8:53 PM 33.1 °F 27.7 °F 18.0 °F 54% 30.05 in 10.0 mi SSW 5.8 mph - N/A   Partly Cloudy
9:53 PM 34.0 °F 26.6 °F 18.0 °F 52% 30.06 in 10.0 mi South 9.2 mph - N/A   Partly Cloudy
10:53 PM 33.1 °F 26.9 °F 19.0 °F 56% 30.06 in 10.0 mi South 6.9 mph - N/A   Clear
11:53 PM 33.1 °F 26.1 °F 19.9 °F 59% 30.06 in 10.0 mi South 8.1 mph - N/A   Clear